Weather History for KBXK - May, 2014

Change the Weather History Date:

Sunday, May 4, 2014

  Actual Average (KGYR) Record (KGYR)
Temperature  
Mean Temperature 80 °F -  
Max Temperature 98 °F 89 °F 102 °F (2004)
Min Temperature 62 °F 60 °F 53 °F (1999)
Cooling Degree Days 15    
Growing Degree Days 30 (Base 50)    
Moisture  
Dew Point 19 °F    
Average Humidity 11    
Maximum Humidity 27    
Minimum Humidity 4    
Precipitation  
Precipitation 0.00 in - - ()
Sea Level Pressure  
Sea Level Pressure 29.88 in    
Wind  
Wind Speed 7 mph (SSE)    
Max Wind Speed 14 mph    
Max Gust Speed 20 mph    
Visibility 10 miles    
Events      
Averages and records for this station are not official NWS values.
T = Trace of Precipitation, MM = Missing Value Source: NWS Daily Summary

Daily Weather History Graph

Daily Weather History Graph

Search for Another Location

Airport or City:

Trip Planner

Search our weather history database for the weather conditions in past years. The results will help you decide how hot, cold, wet, or windy it might be!

Date:

Astronomy

May. 04, 2014 Rise Set
Actual Time 5:39 AM MST 7:15 PM MST
Civil Twilight 5:12 AM MST 7:42 PM MST
Nautical Twilight 4:40 AM MST 8:14 PM MST
Astronomical Twilight 4:07 AM MST 8:48 PM MST
Moon 10:08 AM MST (5/4) No Moon Set
Length of Visible Light 14h 29m
Length of Day
13h 36m
Waxing Crescent, 28% of the Moon is Illuminated
May 4
Waxing Crescent
May 6
First Quarter
May 14
Full
May 21
Last Quarter
May 28
New

Hourly Weather History & Observations

Time (MST) Temp. Dew Point Humidity Pressure Visibility Wind Dir Wind Speed Gust Speed Precip Events Conditions
12:15 AM 71.6 °F 15.8 °F 12% 29.88 in 8.0 mi NW 6.9 mph - N/A   Clear
12:35 AM 71.6 °F 12.2 °F 10% 29.88 in 10.0 mi North 6.9 mph - N/A   Clear
12:55 AM 71.6 °F 14.0 °F 11% 29.87 in 10.0 mi North 6.9 mph - N/A   Clear
1:15 AM 71.6 °F 14.0 °F 11% 29.87 in 10.0 mi North 3.5 mph - N/A   Clear
1:35 AM 68.0 °F 14.0 °F 12% 29.87 in 10.0 mi North 5.8 mph - N/A   Clear
1:55 AM 68.0 °F 12.2 °F 12% 29.87 in 10.0 mi NNW 4.6 mph - N/A   Clear
2:15 AM 68.0 °F 14.0 °F 12% 29.87 in 10.0 mi NE 3.5 mph - N/A   Clear
2:35 AM 66.2 °F 14.0 °F 13% 29.87 in 10.0 mi NE 3.5 mph - N/A   Clear
2:55 AM 62.6 °F 26.6 °F 26% 29.88 in 10.0 mi East 4.6 mph - N/A   Clear
3:15 AM 64.4 °F 15.8 °F 15% 29.88 in 10.0 mi NE 6.9 mph - N/A   Clear
3:35 AM 64.4 °F 14.0 °F 14% 29.88 in 10.0 mi NE 6.9 mph - N/A   Clear
3:55 AM 68.0 °F 15.8 °F 13% 29.88 in 10.0 mi ENE 6.9 mph - N/A   Clear
4:15 AM 66.2 °F 17.6 °F 15% 29.88 in 10.0 mi ENE 5.8 mph - N/A   Clear
4:35 AM 64.4 °F 12.2 °F 13% 29.89 in 10.0 mi ENE 5.8 mph - N/A   Clear
4:55 AM 62.6 °F 12.2 °F 14% 29.89 in 10.0 mi ENE 5.8 mph - N/A   Clear
5:15 AM 64.4 °F 12.2 °F 13% 29.89 in 10.0 mi NNE 5.8 mph - N/A   Clear
5:35 AM 62.6 °F 12.2 °F 14% 29.90 in 10.0 mi NE 8.1 mph - N/A   Clear
5:55 AM 62.6 °F 12.2 °F 14% 29.90 in 10.0 mi ENE 6.9 mph - N/A   Clear
6:15 AM 68.0 °F 17.6 °F 15% 29.91 in 10.0 mi ENE 6.9 mph - N/A   Clear
6:35 AM 68.0 °F 19.4 °F 16% 29.91 in 10.0 mi NE 4.6 mph - N/A   Clear
6:55 AM 71.6 °F 15.8 °F 12% 29.91 in 10.0 mi ENE 4.6 mph - N/A   Clear
7:15 AM 71.6 °F 33.8 °F 25% 29.92 in 10.0 mi SE 5.8 mph - N/A   Clear
7:35 AM 73.4 °F 37.4 °F 27% 29.92 in 10.0 mi ESE 8.1 mph - N/A   Clear
7:55 AM 75.2 °F 33.8 °F 22% 29.93 in 10.0 mi East 10.4 mph - N/A   Clear
8:15 AM 77.0 °F 32.0 °F 19% 29.93 in 10.0 mi East 10.4 mph - N/A   Clear
8:35 AM 80.6 °F 28.4 °F 15% 29.94 in 10.0 mi East 9.2 mph - N/A   Clear
8:55 AM 82.4 °F 23.0 °F 11% 29.94 in 10.0 mi East 11.5 mph - N/A   Clear
9:15 AM 84.2 °F 26.6 °F 12% 29.94 in 10.0 mi ESE 10.4 mph - N/A   Clear
9:35 AM 84.2 °F 24.8 °F 11% 29.94 in 10.0 mi ESE 9.2 mph - N/A   Clear
9:55 AM 84.2 °F 24.8 °F 11% 29.94 in 10.0 mi ESE 9.2 mph - N/A   Clear
10:15 AM 86.0 °F 24.8 °F 11% 29.95 in 10.0 mi ESE 8.1 mph - N/A   Clear
10:35 AM 87.8 °F 26.6 °F 11% 29.94 in 10.0 mi SE 6.9 mph - N/A   Clear
10:55 AM 89.6 °F 24.8 °F 10% 29.94 in 10.0 mi SE 6.9 mph - N/A   Clear
11:15 AM 89.6 °F 21.2 °F 8% 29.94 in 10.0 mi South 6.9 mph - N/A   Clear
11:35 AM 89.6 °F 21.2 °F 8% 29.94 in 10.0 mi SSE 3.5 mph - N/A   Clear
11:55 AM 89.6 °F 23.0 °F 9% 29.93 in 10.0 mi ESE 4.6 mph - N/A   Clear
12:15 PM 89.6 °F 24.8 °F 10% 29.92 in 10.0 mi Calm Calm - N/A   Clear
12:35 PM 91.4 °F 24.8 °F 9% 29.92 in 10.0 mi South 5.8 mph - N/A   Clear
12:55 PM 93.2 °F 23.0 °F 8% 29.91 in 10.0 mi SSE 4.6 mph - N/A   Clear
1:15 PM 93.2 °F 23.0 °F 8% 29.90 in 10.0 mi South 6.9 mph - N/A   Clear
1:35 PM 95.0 °F 19.4 °F 6% 29.89 in 10.0 mi SSE 5.8 mph - N/A   Clear
1:55 PM 95.0 °F 24.8 °F 8% 29.88 in 10.0 mi SSE 8.1 mph - N/A   Clear
2:15 PM 96.8 °F 23.0 °F 7% 29.87 in 10.0 mi South 9.2 mph 16.1 mph N/A   Clear
2:35 PM 96.8 °F 17.6 °F 6% 29.86 in 10.0 mi SSW 8.1 mph - N/A   Clear
2:55 PM 98.6 °F 15.8 °F 5% 29.85 in 10.0 mi WSW 10.4 mph 18.4 mph N/A   Clear
3:15 PM 98.6 °F 15.8 °F 5% 29.85 in 10.0 mi West 11.5 mph - N/A   Clear
3:35 PM 96.8 °F 21.2 °F 7% 29.84 in 10.0 mi SSW 10.4 mph - N/A   Clear
3:55 PM 98.6 °F 19.4 °F 6% 29.83 in 10.0 mi SSW 10.4 mph - N/A   Clear
4:15 PM 98.6 °F 14.0 °F 5% 29.82 in 10.0 mi SW 10.4 mph 18.4 mph N/A   Clear
4:35 PM 96.8 °F 17.6 °F 6% 29.82 in 10.0 mi SSW 13.8 mph 19.6 mph N/A   Clear
4:55 PM 96.8 °F 14.0 °F 5% 29.82 in 10.0 mi SW 8.1 mph - N/A   Clear
5:15 PM 96.8 °F 15.8 °F 5% 29.82 in 10.0 mi SW 10.4 mph 17.3 mph N/A   Clear
5:35 PM 96.8 °F 12.2 °F 4% 29.81 in 10.0 mi SW 11.5 mph - N/A   Clear
5:55 PM 95.0 °F 19.4 °F 6% 29.81 in 10.0 mi SW 11.5 mph - N/A   Clear
6:15 PM 95.0 °F 15.8 °F 6% 29.81 in 10.0 mi SW 11.5 mph 17.3 mph N/A   Clear
6:35 PM 93.2 °F 14.0 °F 5% 29.81 in 10.0 mi SW 10.4 mph - N/A   Clear
6:55 PM 91.4 °F 15.8 °F 6% 29.81 in 10.0 mi SW 10.4 mph - N/A   Clear
7:15 PM 87.8 °F 15.8 °F 7% 29.82 in 9.0 mi SW 8.1 mph - N/A   Clear
7:35 PM 86.0 °F 17.6 °F 8% 29.83 in 10.0 mi SW 8.1 mph - N/A   Clear
7:55 PM 82.4 °F 26.6 °F 13% 29.84 in 8.0 mi SSW 10.4 mph - N/A   Clear
8:15 PM 82.4 °F 28.4 °F 14% 29.84 in 10.0 mi SSW 9.2 mph - N/A   Clear
8:35 PM 80.6 °F 23.0 °F 12% 29.85 in 10.0 mi SW 8.1 mph - N/A   Clear
8:55 PM 78.8 °F 21.2 °F 12% 29.86 in 10.0 mi SW 9.2 mph - N/A   Clear
9:15 PM 77.0 °F 19.4 °F 12% 29.86 in 10.0 mi WSW 9.2 mph - N/A   Clear
9:35 PM 78.8 °F 19.4 °F 11% 29.87 in 10.0 mi WSW 8.1 mph - N/A   Clear
9:55 PM 77.0 °F 17.6 °F 11% 29.88 in 10.0 mi SW 5.8 mph - N/A   Clear
10:15 PM 77.0 °F 17.6 °F 11% 29.88 in 10.0 mi SW 3.5 mph - N/A   Clear
10:35 PM 77.0 °F 15.8 °F 10% 29.89 in 10.0 mi Calm Calm - N/A   Clear
10:55 PM 75.2 °F 17.6 °F 11% 29.89 in 10.0 mi Calm Calm - N/A   Clear
11:15 PM 75.2 °F 14.0 °F 10% 29.89 in 10.0 mi Calm Calm - N/A   Clear
11:35 PM 77.0 °F 15.8 °F 10% 29.90 in 10.0 mi SSW 3.5 mph - N/A   Clear
11:55 PM 73.4 °F 15.8 °F 11% 29.90 in 10.0 mi WSW 6.9 mph - N/A   Clear